[[{"header":{"parameterUnit":"m.s-1","parameterCategory":1,"la1":30.2991,"la2":30.254,"lo1":-89.0895,"lo2":-89.0444,"dy":0.0017,"dx":0.0017,"nx":28,"ny":28,"refTime":"2025-02-26T03:00:00:Z","depth":0,"parameterNumber":2,"parameterNumberName":"U-component_of_WINDS"},"data":[0,0,0,0,0,0,0,0,0,0,0,0,0,0,0,0,0,0,0,0,0,0,0,0,0,0,0,0,0,0,0,0,0,0,0,0,0,0,0,0,0,0,0,0,0,0,0,0,0,0,0,0,0,0,0,0,0,0,1.8245,1.8244,0,1.8238,1.8238,1.8238,1.8237,1.8237,1.8237,1.8237,1.8233,1.8233,1.8233,0,0,0,0,0,0,0,0,0,0,0,0,0,1.8259,1.8259,1.8245,1.8244,1.8244,1.8238,1.8238,1.8238,1.8237,1.8237,1.8237,1.8237,1.8233,1.8233,1.8233,0,0,0,0,0,0,0,0,0,0,0,0,0,1.8253,1.8259,1.8245,1.8243,1.8243,1.8238,1.8238,1.8238,1.8237,1.8237,1.8237,1.8237,1.8234,1.8233,1.8233,1.8231,0,0,1.8233,1.8232,0,0,0,0,0,0,0,0,1.8253,1.8253,1.8243,1.8243,1.8243,1.8238,1.8242,1.8236,1.8237,1.8239,1.8237,1.8237,1.8235,1.8235,1.8234,1.8231,1.823,1.8233,1.8232,1.8232,1.8232,0,0,0,0,0,0,0,1.8254,1.8253,1.8242,1.8243,1.8243,1.8244,1.8243,1.8241,1.8237,1.8239,1.8239,1.8238,1.8235,1.8234,1.8234,1.823,1.8233,1.8232,1.8232,1.8232,1.8228,1.8228,0,0,0,0,0,0,1.8254,1.8253,1.8242,1.8242,1.8248,1.8244,1.8243,1.824,1.8237,1.8237,1.8238,1.8238,1.8234,1.8234,1.8233,1.8232,1.8232,1.8232,1.8232,1.8228,1.8228,1.8228,0,0,0,0,0,0,1.8254,1.8253,1.8243,1.8248,1.8246,1.8243,1.824,1.824,1.8238,1.8236,1.8236,1.8237,1.8234,1.8234,1.8232,1.8232,1.8232,1.8232,1.8228,1.8228,1.8228,1.8229,0,0,0,0,0,0,1.8255,1.8253,1.8251,1.8247,1.8246,1.824,1.824,1.824,1.8238,1.8238,1.8235,1.8235,1.8234,1.8232,1.8232,1.8232,1.8232,1.8228,1.8228,1.8228,1.8229,1.8229,1.8229,0,0,0,0,0,1.8255,1.8251,1.8251,1.825,1.8243,1.824,1.8239,1.8237,1.8238,1.8236,1.8236,1.8235,1.8232,1.8232,1.8231,1.8231,1.8228,1.8228,1.8228,1.8229,1.8229,1.8229,0,0,0,0,0,0,1.8255,1.8251,1.825,1.8245,1.8243,1.8239,1.8237,1.8237,1.8235,1.8235,1.8234,1.8234,1.8233,1.8232,1.8232,1.8231,1.823,1.823,1.8231,1.8231,1.8231,1.8232,1.8232,0,0,0,0,0,1.8254,1.8251,1.8248,1.8243,1.8242,1.824,1.8239,1.8238,1.8236,1.8235,1.8234,1.8233,1.8232,1.8232,1.823,1.8229,1.823,1.8229,1.8229,1.8229,1.8229,1.8231,1.8231,1.8228,1.8228,1.8228,0,0,1.8253,1.825,1.8248,1.8243,1.8241,1.824,1.8239,1.8237,1.8236,1.8235,1.8233,1.8233,1.8232,1.8231,1.823,1.823,1.823,1.8229,1.8229,1.8229,1.8231,1.8231,1.8231,1.8228,1.8228,1.8228,0,0,1.8249,1.8246,1.8243,1.8242,1.8239,1.8238,1.8238,1.8235,1.8235,1.8233,1.8233,1.8233,1.823,1.8231,1.823,1.823,1.823,1.823,1.823,1.8232,1.8232,1.8232,1.8234,1.8234,1.823,1.823,1.823,0,1.8248,1.8243,1.8242,1.8239,1.8238,1.8238,1.8236,1.8235,1.8233,1.8233,1.8232,1.8231,1.8231,1.8231,1.8231,1.823,1.8231,1.823,1.8232,1.8232,1.8232,1.8234,1.8234,1.823,1.823,1.823,1.823,0,1.8243,1.824,1.8238,1.8236,1.8235,1.8233,1.8232,1.8232,1.8232,1.8232,1.8232,1.8231,1.8231,1.8231,1.823,1.8232,1.8232,1.8232,1.8232,1.8233,1.8234,1.8235,1.823,1.823,1.823,1.823,0,0,1.8237,1.8236,1.8235,1.8235,1.8233,1.8232,1.8232,1.8231,1.8231,1.8231,1.8231,1.8231,1.8231,1.8231,1.8231,1.8233,1.8235,1.8233,1.8233,1.8234,1.8239,1.8239,1.824,1.8235,1.8235,1.8235,1.8239,0,1.8234,1.8231,1.8231,1.823,1.8229,1.8229,1.8229,1.8229,1.823,1.823,1.8231,1.8231,1.8231,1.8232,1.8233,1.8234,1.8236,1.8234,1.8238,1.8238,1.8238,1.824,1.824,1.8244,1.824,1.824,1.824,0,1.823,1.8229,1.8227,1.8228,1.8228,1.8227,1.8228,1.8228,1.8229,1.823,1.8231,1.8232,1.8233,1.8233,1.8237,1.8235,1.8237,1.8238,1.8239,1.8239,1.8239,1.8242,1.8244,1.8245,1.824,1.824,1.824,0,1.8228,1.8226,1.8226,1.8226,1.8226,1.8226,1.8227,1.8228,1.8229,1.823,1.8231,1.8233,1.8234,1.8236,1.8238,1.8238,1.8242,1.8242,1.8244,1.8244,1.8245,1.8245,1.8249,1.8245,1.8245,1.8245,1.8245,0,1.8225,1.8224,1.8225,1.8225,1.8225,1.8226,1.8226,1.8227,1.8229,1.823,1.8231,1.8233,1.8235,1.8237,1.8239,1.8243,1.8243,1.8245,1.8246,1.8245,1.8245,1.8247,1.8247,1.8245,1.8245,1.8245,1.8245,0,1.8222,1.8222,1.8222,1.8223,1.8224,1.8224,1.8226,1.8227,1.8228,1.823,1.8231,1.8233,1.8236,1.8239,1.8243,1.8244,1.8249,1.8249,1.8248,1.8249,1.8251,1.8252,1.8257,1.8258,1.8253,1.8253,1.8253,0,1.822,1.822,1.8221,1.8222,1.8223,1.8224,1.8225,1.8226,1.8228,1.8231,1.8232,1.8235,1.8238,1.8243,1.8246,1.825,1.8251,1.8253,1.8252,1.8252,1.8253,1.8253,1.8254,1.8253,1.8253,1.8253,1.8253,0,1.8217,1.8218,1.8219,1.8221,1.8222,1.8224,1.8225,1.8226,1.8229,1.8231,1.8234,1.8236,1.8241,1.8245,1.825,1.8252,1.8254,1.8254,1.8255,1.8255,1.8255,1.8256,1.825,1.8254,1.8254,1.8253,1.8253,1.8253,1.8216,1.8216,1.8218,1.822,1.8222,1.8224,1.8225,1.8227,1.823,1.8234,1.8235,1.8239,1.8243,1.825,1.8252,1.8257,1.8257,1.8258,1.8258,1.8259,1.826,1.8254,1.8258,1.8258,1.8258,1.8258,1.8258,0,1.8214,1.8216,1.8218,1.822,1.8222,1.8224,1.8226,1.8228,1.8232,1.8235,1.8238,1.8243,1.8248,1.8252,1.8258,1.8261,1.8262,1.8262,1.8262,1.8263,1.8258,1.8258,1.8261,1.8261,1.8261,1.8261,1.8261,1.8261,1.8214,1.8215,1.8217,1.8221,1.8223,1.8226,1.8228,1.8231,1.8234,1.8239,1.8243,1.8246,1.8251,1.8257,1.8262,1.8263,1.8266,1.8266,1.8268,1.8264,1.8263,1.8263,1.8262,1.8266,1.8266,1.8272,1.8273,1.8273]},{"header":{"parameterUnit":"m.s-1","parameterCategory":1,"la1":30.2991,"la2":30.254,"lo1":-89.0895,"lo2":-89.0444,"dy":0.0017,"dx":0.0017,"nx":28,"ny":28,"refTime":"2025-02-26T03:00:00:Z","depth":0,"parameterNumber":3,"parameterNumberName":"V-component_of_WINDS"},"data":[0,0,0,0,0,0,0,0,0,0,0,0,0,0,0,0,0,0,0,0,0,0,0,0,0,0,0,0,0,0,0,0,0,0,0,0,0,0,0,0,0,0,0,0,0,0,0,0,0,0,0,0,0,0,0,0,0,0,-1.1454,-1.1452,0,-1.1269,-1.1267,-1.1265,-1.1344,-1.1349,-1.1353,-1.1357,-1.1165,-1.1156,-1.1147,0,0,0,0,0,0,0,0,0,0,0,0,0,-1.1875,-1.1867,-1.1454,-1.1452,-1.1449,-1.127,-1.1267,-1.1265,-1.1343,-1.1349,-1.1354,-1.136,-1.1168,-1.1157,-1.1146,0,0,0,0,0,0,0,0,0,0,0,0,0,-1.1691,-1.1864,-1.1455,-1.1467,-1.1467,-1.127,-1.1267,-1.1264,-1.1342,-1.1349,-1.1356,-1.1362,-1.1172,-1.1158,-1.1145,-1.0924,0,0,-1.1102,-1.1096,0,0,0,0,0,0,0,0,-1.1702,-1.1676,-1.1468,-1.1466,-1.1465,-1.1337,-1.1345,-1.115,-1.1341,-1.1389,-1.1358,-1.1365,-1.1217,-1.12,-1.115,-1.0915,-1.0907,-1.1101,-1.1092,-1.1086,-1.1082,0,0,0,0,0,0,0,-1.1714,-1.1684,-1.1381,-1.1465,-1.1463,-1.1482,-1.1464,-1.1309,-1.1267,-1.1386,-1.1391,-1.1368,-1.1217,-1.1163,-1.1146,-1.0904,-1.1101,-1.1089,-1.108,-1.1075,-1.0482,-1.0475,0,0,0,0,0,0,-1.1727,-1.1694,-1.1387,-1.1375,-1.1602,-1.1469,-1.1448,-1.1371,-1.1269,-1.126,-1.1363,-1.1373,-1.1184,-1.1162,-1.114,-1.0876,-1.1086,-1.1073,-1.1065,-1.0489,-1.0481,-1.0473,0,0,0,0,0,0,-1.1736,-1.1699,-1.1394,-1.1536,-1.1499,-1.1455,-1.1367,-1.1364,-1.131,-1.1252,-1.1245,-1.1315,-1.1188,-1.1159,-1.0978,-1.087,-1.1067,-1.1054,-1.0498,-1.0487,-1.0477,-1.0346,0,0,0,0,0,0,-1.1748,-1.1702,-1.1617,-1.1534,-1.1491,-1.1235,-1.1361,-1.1355,-1.1286,-1.1297,-1.1205,-1.1197,-1.1191,-1.0998,-1.0964,-1.0855,-1.1044,-1.0508,-1.0493,-1.048,-1.036,-1.0332,-1.0308,0,0,0,0,0,-1.1763,-1.1586,-1.1612,-1.1575,-1.1384,-1.1229,-1.1204,-1.1202,-1.1277,-1.1192,-1.1155,-1.12,-1.0888,-1.0979,-1.0941,-1.0826,-1.0514,-1.0497,-1.0481,-1.0371,-1.0337,-1.0309,0,0,0,0,0,0,-1.1656,-1.1575,-1.1603,-1.1395,-1.1318,-1.1242,-1.1134,-1.1166,-1.1066,-1.108,-1.1082,-1.106,-1.0873,-1.0832,-1.0934,-1.0609,-1.0713,-1.0688,-1.0642,-1.0609,-1.0584,-1.0597,-1.1032,0,0,0,0,0,-1.1609,-1.1489,-1.1425,-1.1248,-1.1208,-1.1178,-1.111,-1.1116,-1.1036,-1.1003,-1.0953,-1.0874,-1.0759,-1.0682,-1.0573,-1.0355,-1.0337,-1.0258,-1.0232,-1.0211,-1.0189,-1.0073,-1.0038,-1.0418,-1.0418,-1.0419,0,0,-1.1508,-1.145,-1.1374,-1.1225,-1.1166,-1.1043,-1.115,-1.1014,-1.0922,-1.0982,-1.0809,-1.077,-1.0681,-1.0482,-1.0391,-1.0441,-1.0081,-1.019,-1.0174,-1.0163,-1.0053,-1.0017,-0.9985,-1.0407,-1.0409,-1.0411,0,0,-1.1263,-1.1207,-1.1053,-1.0993,-1.0904,-1.0886,-1.0849,-1.0769,-1.0746,-1.0572,-1.0616,-1.0507,-1.0308,-1.0244,-1.0185,-0.9921,-0.9958,-0.9885,-0.9749,-0.9636,-0.9606,-0.958,-0.9486,-0.9452,-0.9864,-0.9863,-0.9863,0,-1.1149,-1.0965,-1.097,-1.0832,-1.0766,-1.0817,-1.0663,-1.0604,-1.0482,-1.0436,-1.0495,-1.0248,-1.0192,-0.9979,-0.9915,-0.9866,-0.9824,-0.9894,-0.9611,-0.9584,-0.9559,-0.947,-0.9434,-0.9855,-0.9856,-0.9857,-0.9857,0,-1.0831,-1.0703,-1.059,-1.0474,-1.0396,-1.0249,-1.0233,-1.0153,-1.0167,-1.0143,-0.9966,-0.9902,-0.9781,-0.9732,-0.9743,-0.9521,-0.9555,-0.9612,-0.9716,-0.9515,-0.9431,-0.9396,-0.9843,-0.9846,-0.9848,-0.9851,0,0,-1.0509,-1.0401,-1.0359,-1.0308,-1.0216,-1.0117,-0.9975,-0.9859,-0.979,-0.9706,-0.9587,-0.942,-0.9473,-0.9407,-0.9412,-0.9313,-0.9109,-0.9382,-0.938,-0.9334,-0.8862,-0.8819,-0.878,-0.9135,-0.9128,-0.9123,-0.887,0,-1.0257,-1.0007,-1.001,-0.9779,-0.9662,-0.9711,-0.9588,-0.9518,-0.9493,-0.939,-0.9363,-0.9244,-0.9323,-0.9283,-0.9188,-0.9154,-0.9014,-0.9173,-0.9024,-0.9018,-0.9043,-0.8736,-0.8689,-0.8453,-0.8837,-0.8831,-0.8827,0,-0.9928,-0.9835,-0.9593,-0.9521,-0.9472,-0.936,-0.9256,-0.9157,-0.908,-0.9069,-0.8997,-0.9019,-0.8875,-0.8986,-0.8788,-0.8896,-0.8836,-0.8811,-0.8802,-0.8786,-0.8909,-0.8711,-0.8377,-0.8341,-0.8776,-0.878,-0.8784,0,-0.9717,-0.9533,-0.9365,-0.932,-0.9231,-0.9152,-0.9111,-0.9041,-0.8972,-0.8881,-0.8837,-0.873,-0.8671,-0.8588,-0.8581,-0.8662,-0.8382,-0.8492,-0.8369,-0.8369,-0.8306,-0.831,-0.7957,-0.8269,-0.827,-0.827,-0.8271,0,-0.9434,-0.9284,-0.927,-0.9166,-0.9,-0.9006,-0.8841,-0.8808,-0.8746,-0.8637,-0.8674,-0.8572,-0.8569,-0.8464,-0.8458,-0.8297,-0.827,-0.8257,-0.8257,-0.8253,-0.8254,-0.8212,-0.8228,-0.8261,-0.8263,-0.8265,-0.8266,0,-0.917,-0.9154,-0.8974,-0.8907,-0.8886,-0.8767,-0.8709,-0.8611,-0.8592,-0.8454,-0.8422,-0.8391,-0.827,-0.8256,-0.8114,-0.811,-0.7916,-0.7933,-0.7941,-0.7944,-0.7822,-0.7834,-0.7428,-0.7376,-0.7723,-0.772,-0.7717,0,-0.899,-0.8876,-0.8797,-0.8728,-0.8683,-0.8571,-0.8502,-0.8504,-0.843,-0.8337,-0.825,-0.8134,-0.804,-0.7845,-0.781,-0.7703,-0.7718,-0.7584,-0.7701,-0.7702,-0.7715,-0.7722,-0.7711,-0.756,-0.7556,-0.7553,-0.755,0,-0.8672,-0.867,-0.857,-0.8466,-0.8384,-0.8302,-0.8226,-0.8167,-0.816,-0.8076,-0.7954,-0.7882,-0.774,-0.7623,-0.7519,-0.7478,-0.7512,-0.7514,-0.748,-0.7474,-0.7483,-0.7477,-0.7878,-0.7522,-0.7525,-0.7527,-0.7529,-0.753,-0.8443,-0.8346,-0.8276,-0.8163,-0.8107,-0.8035,-0.7941,-0.7911,-0.7809,-0.7694,-0.7702,-0.7568,-0.7497,-0.7361,-0.7312,-0.7208,-0.7252,-0.7203,-0.719,-0.7177,-0.7165,-0.7502,-0.7189,-0.719,-0.7191,-0.7191,-0.7192,0,-0.8127,-0.8086,-0.7982,-0.7876,-0.7788,-0.7831,-0.775,-0.7673,-0.7554,-0.7486,-0.7395,-0.7256,-0.7145,-0.7103,-0.6995,-0.6919,-0.6933,-0.6891,-0.6895,-0.6886,-0.7132,-0.7172,-0.6882,-0.6882,-0.6882,-0.6882,-0.6882,-0.6882,-0.7952,-0.7789,-0.778,-0.7591,-0.7551,-0.742,-0.737,-0.7306,-0.7252,-0.7095,-0.7004,-0.6978,-0.692,-0.6809,-0.671,-0.6701,-0.6659,-0.661,-0.6607,-0.6837,-0.6868,-0.6898,-0.6936,-0.6601,-0.66,-0.637,-0.6368,-0.6366]}]]